TVS90MS LKMT-LKMT

Flight info

Callsign TVS90MS
Flight time 0h 38m
Altitude 16000
Route OTA DCT OGDAS DCT ESETO DCT BILNA
Aircraft A320/M-SDE2E3FGIJ1RWXY/H

Departure

Time 2026-05-04 16:30
Airport Leoš Janáček Airport Ostrava (LKMT)

Arrival

Time 2026-05-04 17:09
Airport Leoš Janáček Airport Ostrava (LKMT)
Time Latitude Longitude Altitude Speed Heading
2026-05-04 15:50 49.69586 18.12012 824 ft 0 kts 175°
2026-05-04 16:25 49.69587 18.12012 831 ft 0 kts 175°
2026-05-04 16:26 49.69694 18.11948 826 ft 10 kts 347°
2026-05-04 16:26 49.69861 18.12175 824 ft 12 kts 46°
2026-05-04 16:27 49.69974 18.12355 825 ft 11 kts 46°
2026-05-04 16:28 49.70135 18.12357 825 ft 8 kts 316°
2026-05-04 16:28 49.70240 18.12200 826 ft 7 kts 316°
2026-05-04 16:29 49.70152 18.11938 825 ft 63 kts 225°
2026-05-04 16:30 49.68064 18.08548 1986 ft 177 kts 225°
2026-05-04 16:31 49.66305 18.05679 3544 ft 194 kts 225°
2026-05-04 16:31 49.62969 18.00435 5737 ft 255 kts 224°
2026-05-04 16:32 49.59104 17.94433 8983 ft 271 kts 225°
2026-05-04 16:33 49.56390 17.90170 10631 ft 298 kts 225°
2026-05-04 16:33 49.53266 17.85256 11898 ft 331 kts 225°
2026-05-04 16:34 49.50563 17.81003 13458 ft 339 kts 225°
2026-05-04 16:34 49.48893 17.78398 14332 ft 343 kts 225°
2026-05-04 16:35 49.43196 17.69609 15968 ft 354 kts 225°
2026-05-04 16:35 49.38349 17.62154 15997 ft 372 kts 225°
2026-05-04 16:36 49.36342 17.59665 15996 ft 373 kts 208°
2026-05-04 16:36 49.31277 17.59267 15992 ft 381 kts 159°
2026-05-04 16:37 49.27691 17.65078 15996 ft 393 kts 110°
2026-05-04 16:37 49.27350 17.69233 16000 ft 398 kts 85°
2026-05-04 16:37 49.29898 17.76545 15994 ft 399 kts 40°
2026-05-04 16:38 49.34278 17.81797 15991 ft 400 kts 37°
2026-05-04 16:39 49.40832 17.89614 15997 ft 387 kts 38°
2026-05-04 16:39 49.45064 17.94692 14765 ft 393 kts 38°
2026-05-04 16:40 49.49066 18.00188 12837 ft 380 kts 46°
2026-05-04 16:40 49.52649 18.05953 11756 ft 366 kts 46°
2026-05-04 16:41 49.56131 18.11572 10565 ft 361 kts 46°
2026-05-04 16:41 49.60968 18.19386 10067 ft 311 kts 46°
2026-05-04 16:42 49.65277 18.26347 9242 ft 294 kts 46°
2026-05-04 16:43 49.68044 18.30829 8694 ft 277 kts 46°
2026-05-04 16:43 49.70607 18.34994 7861 ft 260 kts 47°
2026-05-04 16:43 49.71837 18.36996 7412 ft 255 kts 47°
2026-05-04 16:44 49.77744 18.40135 5656 ft 234 kts 329°
2026-05-04 16:45 49.80150 18.36979 4765 ft 225 kts 312°
2026-05-04 16:46 49.81829 18.31261 3883 ft 186 kts 244°
2026-05-04 16:46 49.80253 18.28317 3441 ft 173 kts 224°
2026-05-04 16:47 49.78644 18.25709 3006 ft 163 kts 224°
2026-05-04 16:47 49.77178 18.23325 2614 ft 140 kts 223°
2026-05-04 16:48 49.75265 18.20174 2036 ft 134 kts 226°
2026-05-04 16:48 49.74652 18.19115 1827 ft 129 kts 218°
2026-05-04 16:49 49.73342 18.17117 1492 ft 132 kts 222°
2026-05-04 16:49 49.72076 18.15048 1205 ft 131 kts 221°
2026-05-04 16:50 49.70827 18.12980 931 ft 131 kts 219°
2026-05-04 16:50 49.69701 18.11217 833 ft 87 kts 225°
2026-05-04 16:51 49.68339 18.08994 1555 ft 178 kts 223°
2026-05-04 16:51 49.67461 18.07548 2588 ft 200 kts 226°
2026-05-04 16:51 49.65712 18.04661 3791 ft 229 kts 225°
2026-05-04 16:52 49.64405 18.02546 3940 ft 217 kts 223°
2026-05-04 16:52 49.63382 18.00904 3918 ft 208 kts 220°
2026-05-04 16:53 49.60823 18.00642 4065 ft 209 kts 135°
2026-05-04 16:53 49.60736 18.07118 3844 ft 233 kts 52°
2026-05-04 16:54 49.61869 18.08862 3696 ft 227 kts 44°
2026-05-04 16:55 49.66520 18.14595 3031 ft 200 kts 39°
2026-05-04 16:55 49.68610 18.17013 2562 ft 174 kts 42°
2026-05-04 16:56 49.70257 18.19446 2193 ft 157 kts 50°
2026-05-04 16:56 49.73043 18.19521 1638 ft 146 kts 296°
2026-05-04 16:57 49.73141 18.18086 1495 ft 135 kts 256°
2026-05-04 16:57 49.72379 18.15449 1355 ft 133 kts 219°
2026-05-04 16:58 49.70485 18.12456 834 ft 126 kts 216°
2026-05-04 16:58 49.69973 18.11661 827 ft 88 kts 227°
2026-05-04 16:59 49.68744 18.09645 1065 ft 187 kts 227°
2026-05-04 17:00 49.64159 18.02263 4668 ft 282 kts 223°
2026-05-04 17:00 49.60519 17.95651 5161 ft 258 kts 261°
2026-05-04 17:01 49.62478 17.91190 4292 ft 272 kts 340°
2026-05-04 17:01 49.65914 17.92322 3739 ft 258 kts 44°
2026-05-04 17:02 49.68211 17.96253 3459 ft 233 kts 55°
2026-05-04 17:02 49.69024 17.97838 3387 ft 226 kts 52°
2026-05-04 17:03 49.69307 17.98344 3282 ft 227 kts 51°
2026-05-04 17:03 49.71301 18.01827 3200 ft 201 kts 50°
2026-05-04 17:04 49.73059 18.04774 3194 ft 175 kts 51°
2026-05-04 17:04 49.74599 18.07592 3028 ft 171 kts 54°
2026-05-04 17:05 49.76115 18.10364 2893 ft 167 kts 52°
2026-05-04 17:05 49.77229 18.13367 2522 ft 157 kts 97°
2026-05-04 17:06 49.76656 18.16463 2432 ft 150 kts 118°
2026-05-04 17:06 49.76270 18.17962 2382 ft 149 kts 125°
2026-05-04 17:07 49.74609 18.18270 2057 ft 138 kts 209°
2026-05-04 17:07 49.74074 18.17739 1829 ft 139 kts 214°
2026-05-04 17:07 49.73072 18.16435 1566 ft 143 kts 220°
2026-05-04 17:07 49.72349 18.15378 1345 ft 144 kts 221°
2026-05-04 17:08 49.71630 18.14285 1157 ft 147 kts 221°
2026-05-04 17:08 49.70226 18.12051 828 ft 133 kts 223°
2026-05-04 17:08 49.69697 18.11204 833 ft 84 kts 229°
2026-05-04 17:09 49.69400 18.10718 834 ft 24 kts 228°
2026-05-04 17:09 49.69380 18.10684 832 ft 9 kts 225°
2026-05-04 17:09 49.69303 18.10570 833 ft 16 kts 224°
2026-05-04 17:10 49.69126 18.10280 839 ft 22 kts 225°
2026-05-04 17:10 49.68861 18.10169 836 ft 17 kts 136°
2026-05-04 17:11 49.68773 18.10297 828 ft 15 kts 136°
2026-05-04 17:11 49.68777 18.10418 829 ft 13 kts 47°
2026-05-04 17:11 49.68897 18.10613 830 ft 11 kts 46°
2026-05-04 17:12 49.68952 18.10703 836 ft 12 kts 47°
2026-05-04 17:12 49.69064 18.10888 836 ft 12 kts 46°
2026-05-04 17:13 49.69265 18.11211 830 ft 15 kts 46°
2026-05-04 17:14 49.69475 18.11553 831 ft 13 kts 46°
2026-05-04 17:14 49.69538 18.11653 831 ft 13 kts 46°
2026-05-04 17:14 49.69629 18.11800 830 ft 9 kts 46°
2026-05-04 17:15 49.69671 18.11868 829 ft 9 kts 46°
2026-05-04 17:15 49.69640 18.11991 829 ft 6 kts 171°
2026-05-04 17:16 49.69588 18.12011 831 ft 0 kts 169°
2026-05-04 17:16 49.69585 18.12012 827 ft 0 kts 169°